Theta_e
295 294 294 293 293 293 292 292 291 290 289 288 287 287 287 287 286 285 284 284 283 283 283 282 282 282 281 281 281 281 280 279 278 277 277 276 276 275 275 275 274 274
294 294 294 293 293 293 293 292 291 290 289 288 287 287 286 286 285 285 284 284 283 283 282 282 282 281 281 281 282 281 279 278 277 277 276 276 276 275 275 275 274 274
293 294 294 294 293 293 293 293 291 290 289 289 288 287 286 285 285 285 284 284 283 282 282 282 282 281 281 282 282 280 279 278 277 276 276 276 275 275 275 274 274 274
292 293 293 293 293 293 293 292 291 290 289 288 288 287 286 285 285 284 284 283 283 282 282 282 282 281 282 283 282 279 279 278 277 276 276 275 275 275 274 274 274 274
292 292 292 293 293 293 293 292 291 290 289 288 288 287 286 285 284 284 283 283 282 282 282 281 281 281 282 283 280 278 278 278 277 276 276 275 275 274 274 274 274 274
292 292 292 292 292 292 292 291 291 290 289 288 288 287 286 285 284 284 283 283 282 282 282 281 281 282 283 281 278 278 278 277 276 276 275 275 275 274 274 274 274 273
292 292 292 291 291 291 291 291 291 291 290 288 287 286 285 284 284 284 283 283 282 282 281 281 281 282 282 280 278 277 278 277 276 276 275 275 274 274 274 274 273 273
292 292 292 291 291 291 291 290 290 290 290 288 286 286 285 284 283 283 283 283 282 282 281 281 281 281 281 279 278 278 277 277 276 276 275 275 274 274 274 273 273 273
291 292 291 291 291 291 291 290 290 290 289 288 287 286 285 284 283 283 282 282 282 282 281 281 281 281 280 278 278 277 277 276 276 275 275 275 274 274 274 273 273 274
291 291 291 291 291 290 290 290 290 289 288 288 287 286 285 284 283 283 282 282 281 281 281 281 281 280 279 279 278 277 277 277 276 275 275 275 274 274 274 273 273 273
291 291 291 291 291 291 290 290 290 289 288 287 287 286 285 284 283 282 282 282 281 281 281 281 281 281 280 279 278 277 277 277 276 275 275 275 274 274 274 273 273 273
291 291 291 291 291 291 290 290 290 289 288 287 286 286 285 284 283 282 282 282 281 281 281 280 281 280 279 278 278 277 277 277 276 275 275 275 274 274 274 274 273 273
290 290 290 291 291 291 290 290 290 289 288 286 286 285 284 283 283 282 282 281 281 281 280 280 280 280 279 278 278 277 276 276 276 275 275 275 274 274 274 274 273 273
290 290 290 291 291 291 290 290 289 289 288 286 285 284 284 283 283 282 282 281 281 280 280 280 280 279 278 278 277 277 276 276 275 275 275 274 274 274 274 274 274 274
290 290 290 290 291 290 290 290 289 288 287 286 284 284 284 283 283 282 281 281 280 280 280 280 279 279 278 278 277 277 276 276 275 275 275 275 274 274 274 274 274 274
289 290 290 290 290 290 290 290 289 288 287 285 284 283 283 283 282 282 281 281 280 280 279 279 279 279 278 278 278 277 276 276 275 275 275 275 274 274 274 274 274 274
289 289 290 290 290 290 290 290 290 288 287 285 284 283 283 282 282 282 281 281 280 280 280 279 279 279 278 278 278 278 276 276 275 275 275 275 274 274 274 274 273 273
289 289 290 290 290 290 290 290 290 288 287 285 284 283 283 282 282 281 281 281 280 280 280 279 279 278 278 279 279 279 277 276 276 275 275 275 275 274 274 274 273 273
289 289 290 290 290 290 290 290 290 288 287 285 284 283 282 282 282 281 281 281 280 280 280 279 279 278 279 279 279 279 279 277 276 275 275 275 275 274 274 274 273 273
289 289 289 290 290 290 290 290 290 288 287 286 284 283 282 282 281 281 281 280 280 280 279 279 279 278 279 279 279 280 280 278 276 275 275 275 275 274 274 274 274 273
289 289 289 290 290 290 290 290 290 289 288 286 285 283 282 282 281 281 280 280 280 280 279 279 279 278 279 279 280 280 280 280 278 276 275 275 275 274 274 274 274 273
288 289 289 289 289 289 289 290 290 289 288 287 285 284 283 282 281 281 281 280 280 279 279 279 278 279 279 279 280 280 280 280 279 278 276 275 275 275 275 274 274 273
288 289 289 288 289 289 289 289 289 289 288 287 286 284 283 282 281 281 281 280 280 279 279 278 278 278 279 280 280 280 280 280 280 279 277 276 276 275 275 274 274 274
288 288 288 288 288 289 289 289 289 289 288 287 286 284 283 282 281 281 280 280 280 279 279 278 278 278 279 280 280 280 280 280 280 279 278 277 276 276 275 275 275 274
288 288 288 288 288 289 289 289 289 288 288 287 286 285 284 283 282 281 280 280 280 279 279 279 278 278 278 279 280 280 280 280 279 279 278 278 277 276 275 275 275 275
288 288 288 288 288 289 289 289 289 288 287 286 285 284 284 283 281 280 280 280 279 279 279 278 278 278 278 279 280 280 281 280 279 279 278 278 277 276 275 275 275 275
Wind_Speed
34 34 34 35 34 33 32 31 30 30 31 31 32 34 35 36 36 36 37 37 37 37 36 36 36 35 34 31 29 28 29 29 28 28 27 27 27 27 26 26 24 24
34 33 32 33 34 33 33 32 32 31 32 32 32 34 34 34 34 34 36 36 36 36 36 36 36 35 34 31 29 29 30 29 28 28 27 27 27 27 27 26 25 24
36 34 32 32 32 33 33 32 32 32 32 32 31 32 32 33 33 33 35 36 36 35 36 37 36 36 34 31 30 31 31 30 29 29 27 26 26 27 27 25 25 25
38 37 34 33 32 31 31 32 32 31 31 31 31 31 31 31 32 32 33 34 35 36 37 38 37 37 34 31 30 30 31 31 31 29 27 26 26 26 26 25 25 25
38 38 37 36 34 32 30 30 31 31 31 31 32 31 31 30 31 32 33 34 35 37 38 38 38 38 34 31 31 31 31 32 31 29 27 26 26 26 25 25 25 26
37 38 38 38 37 34 31 29 30 30 30 31 31 30 30 30 30 31 33 34 35 37 38 38 39 38 34 31 30 31 32 33 31 30 28 26 26 26 25 25 25 26
36 37 38 38 37 35 33 31 29 28 28 29 29 29 29 29 30 31 33 34 35 37 38 39 40 38 34 32 30 31 33 34 32 30 28 26 26 25 25 25 25 27
36 37 38 38 36 35 34 33 31 29 27 27 27 28 29 29 30 31 33 34 35 37 38 40 40 36 32 32 31 32 34 34 32 31 29 27 26 25 26 26 25 27
34 36 38 37 35 34 33 33 33 31 28 26 26 27 27 29 30 31 32 33 35 37 38 39 39 34 31 32 32 32 34 35 33 32 31 29 27 27 26 25 26 27
34 35 36 36 35 33 33 32 33 32 30 28 26 26 26 28 29 30 31 32 34 36 37 38 37 34 32 33 32 32 35 36 34 32 31 29 29 29 27 26 27 27
34 34 34 35 34 33 33 33 32 31 31 29 27 26 26 27 28 29 30 31 33 36 38 38 38 35 33 33 32 33 36 36 33 32 31 29 29 29 28 28 28 28
34 34 34 34 34 33 34 34 32 31 30 30 28 27 27 27 28 29 30 31 33 36 36 37 37 36 34 33 32 33 35 34 32 30 30 29 29 29 28 28 28 29
33 34 35 35 34 34 34 34 33 31 29 29 29 28 27 27 28 29 30 31 33 35 34 34 34 34 33 32 32 33 33 33 31 30 29 28 28 28 27 26 27 28
33 35 35 35 35 35 35 34 33 31 29 28 28 28 29 29 29 30 29 29 31 33 33 32 32 32 32 32 32 33 33 32 31 30 28 27 26 26 26 26 27 28
34 35 35 35 35 35 35 34 33 31 28 27 27 29 30 30 29 29 28 28 29 30 31 31 31 31 31 32 33 33 33 32 31 30 29 27 26 25 25 26 27 28
35 34 34 35 35 34 34 33 32 30 27 26 27 29 30 29 28 28 28 28 28 28 29 30 31 32 33 33 33 33 33 31 30 30 30 28 26 25 25 25 27 28
34 34 33 34 34 34 33 32 32 30 27 26 26 28 29 28 27 28 28 28 27 27 28 30 31 33 32 30 30 30 32 32 30 31 31 29 27 25 24 24 24 26
34 33 33 33 33 33 32 32 31 29 27 25 26 27 27 27 27 28 28 28 27 27 29 30 31 31 29 28 29 29 30 32 32 32 32 30 27 25 24 22 22 23
33 32 31 32 32 32 32 31 29 27 26 25 26 26 25 26 27 28 28 28 28 28 29 30 30 29 28 28 30 29 29 30 32 32 32 32 29 26 24 23 22 22
32 31 30 31 31 31 31 29 26 25 25 24 24 24 24 26 28 28 28 28 29 29 28 28 28 29 28 28 29 29 29 29 30 30 30 31 29 27 25 24 23 23
30 30 31 31 30 29 29 28 25 23 24 24 22 23 24 26 27 27 28 28 28 27 26 26 27 28 27 28 28 28 28 28 27 28 28 28 27 27 26 25 24 24
28 29 31 32 31 28 27 26 24 23 23 23 21 22 24 25 26 26 27 26 26 25 25 25 26 26 25 27 28 27 28 28 25 25 26 26 25 25 25 25 24 24
28 28 30 31 31 28 25 25 24 22 22 22 20 21 22 24 25 25 25 25 24 24 25 25 26 25 25 26 27 27 28 27 24 23 23 24 24 24 24 24 23 23
28 27 28 29 28 27 26 26 25 22 22 21 20 20 21 23 24 23 23 23 23 24 26 26 25 25 24 24 26 26 26 26 23 21 21 22 22 22 22 23 23 22
27 27 27 27 27 28 28 27 26 25 24 21 19 20 21 22 22 21 21 22 23 24 25 24 24 23 22 23 25 25 25 25 24 21 20 21 21 20 20 22 22 20
27 27 27 27 27 29 28 27 27 27 26 22 19 19 20 20 19 20 21 21 22 23 22 22 22 22 22 23 24 25 25 25 24 22 20 20 21 21 20 20 21 21
Wind_Direction
333 325 310 296 288 283 280 275 269 262 254 248 241 238 237 235 233 227 223 222 221 220 220 219 218 218 217 217 220 224 226 227 227 228 228 228 230 232 233 234 233 232
332 330 323 310 299 292 288 283 276 268 259 253 247 243 241 237 233 227 224 222 220 219 219 218 218 217 216 218 222 223 222 224 225 226 226 227 230 231 233 234 232 233
331 327 324 319 310 303 297 291 284 275 266 258 252 247 243 239 235 230 226 222 219 218 218 218 218 216 217 221 224 222 221 223 223 223 224 226 229 231 233 232 232 233
330 325 321 320 318 311 303 296 289 282 272 263 256 251 245 241 236 230 226 222 219 218 218 218 217 215 218 224 223 219 221 225 225 223 222 224 229 230 231 231 233 234
327 325 322 319 319 316 307 298 293 288 279 269 262 255 247 241 235 229 225 221 219 219 218 217 216 216 218 221 218 215 219 223 223 221 220 223 227 228 230 232 232 233
324 324 322 319 318 315 307 298 294 289 282 275 267 258 250 243 235 229 225 222 220 220 218 216 215 216 217 215 211 213 218 219 219 218 218 221 225 227 230 231 232 232
320 321 320 318 318 315 308 299 293 288 284 277 268 259 251 243 235 231 227 224 222 220 218 216 215 215 215 212 208 211 216 218 217 216 216 218 222 226 229 231 231 232
317 317 317 315 315 315 310 303 294 288 283 275 266 259 252 243 236 232 228 225 224 221 218 217 216 214 212 210 209 211 214 215 215 215 215 215 218 224 228 229 229 231
313 313 313 312 311 311 310 306 298 290 282 272 266 261 253 244 238 233 229 227 225 222 219 218 216 213 211 210 209 209 211 213 214 215 214 213 217 223 226 226 226 229
311 311 310 308 308 307 308 307 301 292 281 271 265 259 252 246 240 234 231 228 224 220 218 217 215 214 214 214 212 210 211 212 213 214 214 215 219 222 223 223 224 227
311 311 309 306 305 305 306 306 302 294 282 271 263 256 251 246 239 234 231 227 223 220 219 218 217 217 217 216 214 212 212 212 212 213 215 217 220 222 223 223 223 227
309 310 309 306 304 303 303 303 301 295 283 271 263 255 248 242 237 234 231 228 224 221 219 219 219 219 217 217 216 214 212 212 212 213 215 218 221 222 224 224 224 228
308 308 308 306 303 302 301 300 298 294 283 272 263 254 245 239 235 233 230 227 223 220 218 218 218 218 218 218 218 215 212 211 212 213 214 217 220 222 223 225 228 230
306 307 307 306 304 301 300 297 295 292 284 272 260 250 245 240 235 232 228 224 221 218 218 218 217 216 217 217 217 216 213 211 212 212 212 214 217 220 223 225 229 232
306 306 306 306 304 300 297 296 293 289 283 270 255 247 244 240 236 232 227 222 219 218 218 217 216 216 215 215 216 215 213 212 212 212 212 212 214 218 223 226 229 232
305 304 305 306 304 299 296 294 291 287 280 268 254 245 242 238 234 230 225 222 219 217 218 217 217 218 217 217 216 215 214 212 210 212 213 212 213 216 221 226 229 231
304 303 304 304 302 299 296 294 292 287 280 268 255 245 240 235 231 228 226 224 221 219 218 217 218 218 217 215 214 212 213 211 210 212 214 212 213 215 218 224 228 230
302 302 303 303 302 300 299 298 294 289 281 269 257 247 239 234 230 229 228 226 222 220 218 218 219 219 215 214 215 212 211 212 213 213 213 213 213 215 218 221 224 227
300 300 301 301 301 302 302 300 295 288 280 269 258 250 241 234 231 229 227 224 221 219 219 220 221 220 217 216 217 215 210 210 213 214 215 216 215 215 217 219 221 223
299 300 300 300 301 302 302 300 295 289 282 272 260 248 238 232 230 228 225 223 221 220 220 221 222 222 220 217 217 216 212 209 211 212 214 218 218 217 218 220 221 221
299 300 301 300 300 301 300 299 296 292 288 279 263 247 237 232 229 227 225 223 222 221 220 222 223 222 219 218 217 216 213 210 208 208 211 215 217 218 220 221 221 221
299 300 303 303 303 301 299 298 297 294 292 285 267 249 240 235 231 228 226 224 223 221 219 221 224 220 216 218 218 215 214 212 207 204 205 209 212 216 218 219 219 221
299 301 303 303 301 299 298 299 299 298 296 289 270 249 238 233 230 229 227 225 222 219 218 220 223 220 216 217 217 215 213 211 206 202 201 203 208 212 214 216 218 221
300 301 301 298 296 297 300 301 303 303 301 294 275 254 242 235 232 229 226 225 222 220 218 219 222 221 217 216 217 215 212 208 204 200 199 200 204 208 212 215 218 220
300 300 299 296 295 298 300 301 304 307 305 297 281 264 251 240 233 227 224 223 223 223 220 219 221 222 218 217 217 215 212 207 201 198 195 196 199 202 205 210 214 214
300 300 299 297 296 298 299 301 304 306 305 297 284 270 255 243 232 224 222 222 222 222 220 218 221 222 219 217 216 215 213 206 200 198 194 190 192 195 195 199 207 211